Ludington, MI

11:39 AM EDT on September 28, 2016 (GMT -0400)
Mason County

Weather History for KLDM - October, 2012

Change the Weather History Date:

Sunday, October 21, 2012

  Actual Average Record
Temperature  
Mean Temperature 44 °F -  
Max Temperature 55 °F 56 °F 82 °F (1953)
Min Temperature 33 °F 39 °F 27 °F (1952)
Degree Days  
Heating Degree Days 21    
Moisture  
Dew Point 38 °F    
Average Humidity 81    
Maximum Humidity 92    
Minimum Humidity 59    
Precipitation  
Precipitation 0.00 in - - ()
Sea Level Pressure  
Sea Level Pressure 30.00 in    
Wind  
Wind Speed 2 mph (SSW)    
Max Wind Speed 15 mph    
Max Gust Speed 18 mph    
Visibility 6 miles    
Events Fog    
Averages and records for this station are not official NWS values.
T = Trace of Precipitation, MM = Missing Value Source: NWS Daily Summary

Daily Weather History Graph

Daily Weather History Graph

Search for Another Location

Airport or City:

Trip Planner

Search our weather history database for the weather conditions in past years. The results will help you decide how hot, cold, wet, or windy it might be!

Date:

Astronomy

Oct. 21, 2012 Rise Set
Actual Time 8:08 AM EDT 6:51 PM EDT
Civil Twilight 7:38 AM EDT 7:20 PM EDT
Nautical Twilight 7:05 AM EDT 7:54 PM EDT
Astronomical Twilight 6:31 AM EDT 8:27 PM EDT
Moon 2:32 PM EDT (10/21) No Moon Set
Length of Visible Light 11h 41m
Length of Day
10h 42m
Waxing Crescent, 45% of the Moon is Illuminated
Oct 21
Waxing Crescent
Oct 21
First Quarter
Oct 29
Full
Nov 6
Last Quarter
Nov 13
New

Hourly Weather History & Observations

Time (EDT) Temp. Windchill Dew Point Humidity Pressure Visibility Wind Dir Wind Speed Gust Speed Precip Events Conditions
12:15 AM 37.2 °F - 34.9 °F 91% 29.89 in 0.8 mi Calm Calm - N/A   Mostly Cloudy
12:35 AM 35.6 °F - 33.3 °F 91% 29.90 in 0.5 mi Calm Calm - N/A Fog Fog
12:55 AM 35.6 °F - 33.3 °F 91% 29.91 in 0.8 mi Calm Calm - N/A   Mostly Cloudy
1:15 AM 35.6 °F - 33.3 °F 91% 29.91 in 1.2 mi Calm Calm - N/A   Scattered Clouds
1:35 AM 35.6 °F - 33.3 °F 91% 29.91 in 0.8 mi Calm Calm - N/A   Mostly Cloudy
1:55 AM 35.6 °F - 33.3 °F 91% 29.92 in 0.5 mi Calm Calm - N/A Fog Fog
2:15 AM 35.6 °F - 33.3 °F 91% 29.92 in 1.2 mi Calm Calm - N/A   Scattered Clouds
2:35 AM 33.3 °F - 31.3 °F 92% 29.93 in 0.8 mi Calm Calm - N/A   Mostly Cloudy
2:55 AM 35.6 °F - 33.4 °F 92% 29.93 in 2.5 mi Calm Calm - N/A   Mostly Cloudy
3:15 AM 35.6 °F - 33.3 °F 91% 29.95 in 3.0 mi Calm Calm - N/A   Scattered Clouds
3:35 AM 35.6 °F - 33.3 °F 91% 29.95 in 2.0 mi Calm Calm - N/A   Scattered Clouds
3:55 AM 34.5 °F - 32.4 °F 92% 29.95 in 2.0 mi Calm Calm - N/A   Clear
4:15 AM 35.1 °F - 32.7 °F 91% 29.95 in 2.0 mi Calm Calm - N/A   Scattered Clouds
4:35 AM 34.3 °F - 32.0 °F 91% 29.96 in 2.5 mi Calm Calm - N/A   Scattered Clouds
4:55 AM 35.6 °F - 33.3 °F 91% 29.96 in 2.5 mi Calm Calm - N/A   Scattered Clouds
5:15 AM 34.3 °F 30.2 °F 32.0 °F 91% 29.96 in 2.5 mi East 4.6 mph - N/A   Mostly Cloudy
5:35 AM 33.1 °F 30.0 °F 31.1 °F 92% 29.97 in 2.5 mi East 3.5 mph - N/A   Scattered Clouds
5:55 AM 33.6 °F - 31.5 °F 92% 29.97 in 1.5 mi Calm Calm - N/A   Mist
6:15 AM 33.1 °F - 31.1 °F 92% 29.97 in 1.5 mi Calm Calm - N/A   Mist
6:35 AM 33.1 °F - 31.1 °F 92% 29.97 in 0.8 mi Calm Calm - N/A   Mist
6:55 AM 33.1 °F - 31.1 °F 92% 29.98 in 1.5 mi Calm Calm - N/A   Mist
7:15 AM 33.1 °F - 31.1 °F 92% 29.98 in 0.8 mi Calm Calm - N/A   Mist
7:35 AM 33.1 °F - 31.1 °F 92% 29.99 in 0.5 mi Calm Calm - N/A Fog Fog
7:55 AM 33.1 °F - 31.1 °F 92% 29.99 in 0.5 mi Calm Calm - N/A Fog Fog
8:15 AM 33.1 °F - 31.1 °F 92% 30.00 in 0.2 mi Calm Calm - N/A Fog Fog
8:35 AM 33.1 °F - 31.1 °F 92% 30.01 in 0.2 mi Calm Calm - N/A Fog Fog
8:55 AM 35.6 °F - 33.3 °F 91% 30.02 in 0.2 mi Calm Calm - N/A Fog Fog
9:15 AM 37.2 °F - 34.9 °F 91% 30.02 in 0.5 mi Calm Calm - N/A Fog Fog
9:35 AM 39.2 °F - 36.9 °F 91% 30.02 in 2.0 mi Calm Calm - N/A   Clear
9:55 AM 41.5 °F - 39.2 °F 91% 30.03 in 7.0 mi Calm Calm - N/A   Clear
10:15 AM 44.4 °F - 41.9 °F 91% 30.03 in 7.0 mi Calm Calm - N/A   Clear
10:35 AM 48.2 °F - 45.5 °F 90% 30.04 in 10.0 mi South 3.5 mph - N/A   Clear
10:55 AM 48.2 °F - 45.5 °F 90% 30.04 in 10.0 mi Calm Calm - N/A   Clear
11:15 AM 53.1 °F - 48.0 °F 83% 30.04 in 10.0 mi WSW 8.1 mph - N/A   Clear
11:35 AM 53.1 °F - 45.1 °F 74% 30.04 in 10.0 mi SW 8.1 mph - N/A   Clear
11:55 AM 53.1 °F - 44.1 °F 71% 30.05 in 10.0 mi WSW 8.1 mph - N/A   Clear
12:15 PM 54.3 °F - 43.5 °F 67% 30.05 in 10.0 mi SW 8.1 mph - N/A   Clear
12:35 PM 54.5 °F - 41.9 °F 62% 30.06 in 10.0 mi WSW 9.2 mph - N/A   Clear
12:55 PM 54.5 °F - 41.4 °F 61% 30.05 in 10.0 mi SW 10.4 mph - N/A   Clear
1:15 PM 55.6 °F - 41.4 °F 59% 30.04 in 10.0 mi SSW 10.4 mph - N/A   Clear
1:35 PM 55.6 °F - 41.7 °F 60% 30.04 in 10.0 mi SW 9.2 mph - N/A   Clear
1:55 PM 55.4 °F - 43.3 °F 64% 30.04 in 10.0 mi SW 10.4 mph - N/A   Clear
2:15 PM 55.4 °F - 44.4 °F 67% 30.02 in 10.0 mi SW 9.2 mph - N/A   Clear
2:35 PM 55.6 °F - 42.6 °F 62% 30.02 in 10.0 mi WSW 12.7 mph - N/A   Clear
2:55 PM 55.6 °F - 43.0 °F 63% 30.02 in 10.0 mi WSW 12.7 mph - N/A   Clear
3:14 PM 55.6 °F - 44.6 °F 67% 30.02 in 10.0 mi SW 12.7 mph 17.3 mph N/A   Clear
3:35 PM 55.6 °F - 45.1 °F 68% 30.02 in 10.0 mi SW 15.0 mph - N/A   Clear
3:55 PM 55.6 °F - 44.2 °F 66% 30.02 in 10.0 mi SW 12.7 mph - N/A   Clear
4:15 PM 54.7 °F - 44.4 °F 68% 30.03 in 10.0 mi SW 13.8 mph 18.4 mph N/A   Clear
4:35 PM 55.6 °F - 45.0 °F 67% 30.02 in 10.0 mi SW 12.7 mph 18.4 mph N/A   Clear
4:56 PM 55.6 °F - 45.9 °F 70% 30.02 in 10.0 mi SW 9.2 mph - N/A   Clear
5:15 PM 54.5 °F - 44.6 °F 69% 30.02 in 10.0 mi SW 8.1 mph - N/A   Clear
5:35 PM 54.5 °F - 44.2 °F 68% 30.02 in 10.0 mi SSW 6.9 mph - N/A   Clear
5:55 PM 54.9 °F - 43.5 °F 66% 30.02 in 10.0 mi SSW 4.6 mph - N/A   Clear
6:15 PM 53.1 °F - 41.9 °F 66% 30.02 in 10.0 mi South 4.6 mph - N/A   Clear
6:35 PM 53.1 °F - 42.1 °F 66% 30.02 in 10.0 mi South 3.5 mph - N/A   Clear
6:55 PM 53.1 °F - 40.8 °F 63% 30.02 in 10.0 mi South 3.5 mph - N/A   Clear
7:15 PM 50.5 °F - 39.7 °F 66% 30.02 in 10.0 mi Calm Calm - N/A   Clear
7:35 PM 48.2 °F - 41.0 °F 76% 30.02 in 10.0 mi Calm Calm - N/A   Clear
7:55 PM 42.8 °F - 38.8 °F 86% 30.03 in 10.0 mi Calm Calm - N/A   Clear
8:15 PM 42.6 °F - 38.7 °F 86% 30.03 in 10.0 mi Calm Calm - N/A   Clear
8:35 PM 40.5 °F - 36.7 °F 86% 30.04 in 10.0 mi Calm Calm - N/A   Clear
8:55 PM 39.4 °F 37.2 °F 36.0 °F 88% 30.02 in 10.0 mi ESE 3.5 mph - N/A   Clear
9:15 PM 40.5 °F - 36.7 °F 86% 30.02 in 10.0 mi Calm Calm - N/A   Clear
9:35 PM 42.1 °F 40.2 °F 37.8 °F 85% 30.02 in 10.0 mi SE 3.5 mph - N/A   Clear
9:55 PM 43.0 °F 41.3 °F 38.3 °F 84% 30.02 in 10.0 mi SE 3.5 mph - N/A   Clear
10:15 PM 41.7 °F 39.8 °F 36.0 °F 80% 30.02 in 10.0 mi ESE 3.5 mph - N/A   Clear
10:35 PM 43.0 °F 41.3 °F 37.4 °F 81% 30.02 in 10.0 mi ESE 3.5 mph - N/A   Clear
10:55 PM 43.0 °F 40.3 °F 37.4 °F 81% 30.01 in 10.0 mi ESE 4.6 mph - N/A   Clear
11:15 PM 42.6 °F 40.9 °F 37.0 °F 81% 30.02 in 10.0 mi ESE 3.5 mph - N/A   Clear
11:35 PM 44.1 °F 41.5 °F 38.1 °F 80% 30.01 in 10.0 mi SE 4.6 mph - N/A   Clear
11:55 PM 48.2 °F - 40.3 °F 74% 30.02 in 10.0 mi Calm Calm - N/A   Clear